Lapse_Rate
5.9 5.8 5.9 5.8 5.5 5.1 5.0 4.5 4.1 4.2 3.4 3.3 3.2 3.1 3.4 3.2 3.7 1.3 -0.8 -0.8 0.3 -1.1 3.1 4.1 3.6 4.0 3.7 3.4 6.5 4.5 5.1 4.6 5.5 6.5 6.5 6.5 6.5 6.5 6.5 6.5 6.5 6.5 6.5 6.5 6.5 6.5 6.5 5.7 6.3 6.5 5.8 4.0 3.8 3.8
5.9 5.7 5.4 5.1 5.1 5.0 4.8 4.9 4.3 3.7 3.8 3.7 3.2 3.3 3.9 4.5 4.5 3.6 1.6 -0.3 -0.7 -0.1 3.3 3.1 4.4 3.9 3.4 3.5 2.0 3.4 4.7 3.9 2.4 6.5 6.5 6.5 6.5 6.5 6.5 6.5 6.5 6.5 6.5 6.5 6.5 6.5 5.5 4.3 5.6 3.6 3.1 2.9 3.3 3.7
5.7 5.5 5.3 5.4 5.4 5.3 4.9 4.6 4.6 4.1 4.2 4.4 4.5 3.9 3.7 3.6 4.1 3.0 0.2 -0.9 -1.1 0.2 2.8 3.1 4.7 4.5 3.9 2.1 1.8 2.5 2.2 3.0 2.8 1.6 2.9 6.4 6.5 6.5 6.5 6.5 6.5 6.5 5.5 6.5 6.5 6.4 5.5 4.3 2.8 2.8 2.8 2.6 2.5 4.2
5.9 5.9 5.7 5.6 5.4 5.3 5.0 4.8 4.5 4.6 4.5 4.3 4.8 4.7 3.8 3.4 3.4 3.4 0.5 -1.0 -0.7 -1.1 2.4 3.4 4.2 4.8 3.9 2.6 2.4 1.7 1.0 -0.2 -0.1 0.4 -0.6 6.6 6.5 5.1 6.5 6.4 6.5 5.7 6.1 6.5 6.5 6.2 5.6 4.4 3.4 2.3 2.1 2.6 3.6 6.5
6.1 6.1 6.0 5.8 5.6 5.4 5.0 4.7 4.8 4.9 5.0 4.9 4.9 5.1 5.0 3.8 2.8 2.5 0.6 0.1 -0.6 0.5 3.3 2.0 4.0 3.8 2.7 2.5 2.0 1.3 0.8 0.4 0.5 0.3 1.8 6.5 1.9 4.7 4.2 6.2 6.5 4.6 6.5 6.5 6.5 3.8 4.2 3.7 2.5 2.3 2.2 2.8 4.1 6.7
6.4 6.0 5.7 5.6 5.5 5.2 5.0 4.9 4.8 5.0 5.2 5.2 5.2 5.2 5.3 5.1 4.6 1.3 1.1 1.9 1.4 -1.1 0.3 6.4 3.5 5.1 4.0 2.8 1.9 1.5 1.2 0.2 0.2 -0.1 0.3 1.3 3.8 3.9 6.5 6.5 4.8 4.3 4.0 4.0 1.7 1.7 2.0 1.1 1.8 2.6 2.8 3.7 4.9 7.6
5.7 5.7 5.8 5.6 5.3 5.1 5.1 5.2 5.2 5.2 5.5 5.7 5.4 4.9 4.7 4.9 2.7 1.5 3.3 3.6 2.7 0.6 0.4 5.7 4.8 4.7 4.9 3.0 1.9 2.1 1.4 1.1 1.2 -0.2 0.6 2.3 4.2 2.3 6.5 6.5 4.7 4.0 4.2 2.7 1.5 1.3 2.5 2.7 2.5 2.6 3.6 4.7 6.9 6.7
5.6 5.5 5.4 5.4 5.5 5.4 5.2 5.1 5.2 5.4 5.6 5.6 5.3 5.0 4.7 4.2 3.2 3.1 3.0 3.8 2.9 0.5 1.2 6.3 6.4 5.9 5.1 3.1 3.6 2.2 2.8 1.6 1.6 0.7 1.6 2.7 3.8 2.3 6.5 5.1 5.7 3.5 2.4 2.1 2.7 2.2 1.7 1.2 2.3 3.6 4.3 4.6 5.3 5.6
5.4 5.7 5.6 5.5 5.5 5.4 5.3 5.2 5.4 5.5 5.5 5.4 5.2 4.9 3.2 1.8 2.3 3.9 4.1 4.3 2.5 1.5 2.4 3.0 6.5 6.5 5.0 4.2 1.9 2.6 2.3 5.4 2.7 1.6 3.3 4.5 6.5 6.5 6.4 5.5 4.3 2.8 2.5 1.8 2.1 2.0 1.7 1.8 3.1 4.2 5.0 6.3 6.0 5.4
5.2 5.4 5.4 5.7 5.6 5.6 5.5 5.5 5.5 5.7 5.6 5.6 3.7 1.8 1.3 3.1 4.4 4.1 1.9 1.0 0.3 0.2 1.5 4.3 5.2 6.5 4.7 4.9 5.8 2.6 3.6 6.4 6.5 6.1 4.6 6.5 6.5 5.3 4.6 5.2 3.4 2.2 1.4 0.5 0.3 2.6 2.6 3.0 3.4 4.2 4.9 5.4 5.7 5.0
5.2 5.3 5.4 5.6 5.8 5.7 5.7 5.6 5.7 5.9 5.7 2.5 1.7 2.8 3.5 4.1 2.8 1.3 1.6 3.4 2.6 4.9 2.2 3.9 6.3 5.8 5.1 5.6 6.2 3.8 6.1 5.8 6.5 6.3 6.5 6.5 6.5 5.4 2.8 2.5 3.1 1.3 0.9 -0.8 -0.6 -1.5 0.6 2.2 2.7 4.3 4.7 4.9 4.6 3.1
5.1 5.1 5.1 5.3 5.4 5.4 5.3 5.4 5.7 3.0 2.0 3.2 3.0 3.0 2.8 2.9 2.2 5.3 6.5 5.4 6.3 6.5 3.8 3.6 5.3 4.1 2.7 2.6 3.1 5.3 6.5 6.4 6.5 6.1 6.5 6.5 6.5 4.0 3.6 1.5 0.7 0.4 -0.7 -0.6 -1.2 -0.7 0.5 2.0 3.1 3.4 3.9 4.1 2.0 0.7
5.1 5.1 5.2 5.2 5.3 5.2 5.2 5.1 5.0 4.4 4.1 2.6 2.6 3.2 2.9 3.8 6.4 6.5 6.5 6.5 6.5 5.1 4.3 5.4 6.4 6.6 5.4 6.7 4.8 6.0 6.5 6.5 5.5 6.5 6.5 6.5 4.5 4.1 2.6 1.1 -0.1 0.1 0.3 -0.0 -1.6 -2.5 -0.9 -1.1 0.5 1.2 1.1 1.4 -0.3 -0.4
5.2 5.3 5.4 5.3 5.2 5.2 5.3 5.5 5.5 4.8 2.6 2.1 2.8 6.5 6.5 6.5 6.5 6.5 6.5 6.4 4.4 5.3 4.0 5.3 5.3 6.3 5.3 6.4 5.2 6.5 6.3 6.2 6.5 6.5 6.5 6.2 3.3 2.7 2.7 1.8 0.8 -1.4 0.1 -0.8 -1.0 -1.4 -1.1 -1.1 -3.0 -3.2 -1.0 -1.5 -0.8 -1.2
5.9 5.9 5.9 5.7 5.4 5.3 5.3 5.4 5.6 3.2 2.4 3.1 3.1 6.5 6.5 5.3 4.7 4.3 3.7 4.1 3.8 3.5 3.9 4.5 4.4 4.4 5.6 6.5 6.4 6.5 6.5 6.5 6.5 6.5 6.5 0.6 2.4 2.0 2.7 2.9 0.7 0.4 -0.5 -0.5 -1.2 -1.7 -2.5 -1.8 -0.9 -3.4 -2.5 -0.4 -0.4 -1.9
6.7 6.5 6.2 6.2 5.9 5.6 5.6 5.6 3.6 2.3 2.0 3.6 4.9 5.8 4.7 4.4 2.0 0.7 1.0 2.3 3.9 4.4 5.4 4.1 5.9 6.5 6.5 6.5 6.5 6.5 6.5 6.5 6.5 5.5 2.1 1.5 1.9 3.1 2.8 2.6 2.2 1.3 1.4 0.6 0.6 0.6 0.7 0.3 0.8 0.5 0.8 0.7 -1.7 -0.7
5.1 5.7 7.4 6.4 5.6 5.0 4.9 2.9 2.4 1.8 2.6 5.2 4.9 4.4 4.5 4.0 2.6 1.4 2.9 3.5 3.7 5.1 6.4 5.9 6.5 6.5 6.0 6.5 6.5 6.5 6.5 6.5 2.0 1.0 1.4 1.5 2.5 1.9 1.3 1.0 1.0 1.3 0.9 1.3 1.7 2.3 2.2 2.5 2.1 2.0 1.7 0.9 1.4 0.6
5.4 6.6 7.2 6.2 6.3 4.6 4.0 3.3 2.3 3.3 5.4 5.3 4.9 4.6 3.8 3.4 2.5 3.2 3.2 3.4 5.1 5.7 6.4 6.5 6.7 6.5 6.5 6.5 6.5 6.4 5.0 4.1 2.9 2.2 1.3 1.1 1.5 1.6 1.9 1.1 1.1 1.7 1.9 1.6 2.5 2.8 3.0 2.4 2.6 2.4 2.5 1.8 2.1 1.2
6.0 6.8 6.7 6.5 5.7 2.8 3.1 4.7 4.1 4.6 6.1 5.8 4.6 3.8 3.6 3.5 2.9 3.4 3.4 3.7 3.9 3.8 4.2 6.3 6.5 6.5 6.5 5.6 6.4 6.1 5.9 6.0 5.2 3.7 2.2 1.4 0.6 1.1 2.1 2.4 2.2 2.1 2.0 1.7 2.2 2.5 3.0 3.2 2.6 2.4 2.0 2.0 1.1 0.4
6.1 5.4 5.8 5.9 6.3 1.9 2.8 5.2 5.9 7.4 6.9 6.0 5.5 5.0 4.5 4.2 4.1 3.7 4.1 4.4 4.2 4.2 6.1 6.5 6.2 3.4 5.6 5.7 5.4 4.9 4.7 5.3 5.5 5.6 4.7 2.6 0.9 1.2 0.8 1.7 2.5 2.6 1.9 2.3 3.0 3.4 3.9 3.7 2.8 3.3 3.1 1.1 0.5 -0.0
5.4 5.2 6.0 5.4 3.3 2.5 3.0 3.3 6.4 6.6 6.3 6.1 5.8 5.6 5.4 4.7 4.7 4.4 4.5 4.1 3.8 3.9 5.0 3.5 2.7 2.9 3.1 3.4 4.4 4.4 4.6 5.4 6.2 5.5 4.9 5.1 2.8 2.2 1.6 1.6 2.3 2.7 2.5 2.3 2.1 2.3 2.6 2.0 2.2 2.6 0.3 -0.1 -0.6 0.2
6.2 6.6 4.4 4.5 3.4 3.4 4.0 4.8 4.0 3.7 5.1 6.0 6.2 5.8 5.8 3.9 4.1 4.5 4.6 4.8 5.0 5.0 4.2 4.3 4.2 4.0 3.7 4.0 3.2 4.6 4.7 5.0 5.2 4.1 2.7 2.3 2.8 3.0 2.4 1.8 2.5 2.8 2.3 2.3 2.2 1.1 0.9 1.4 0.5 0.3 -0.4 -2.5 -1.5 -1.4
6.6 5.7 4.5 2.7 2.1 3.9 4.2 5.7 6.3 5.2 5.2 6.1 5.9 5.9 5.7 5.2 4.8 4.8 5.1 5.9 5.0 3.9 3.7 4.1 5.0 4.9 4.7 4.6 4.4 4.6 4.8 4.8 3.9 4.2 4.1 3.2 3.7 3.6 1.9 1.6 1.8 2.4 2.2 1.4 1.4 1.0 0.2 -0.1 -0.4 -0.3 -0.9 -1.4 -2.0 -4.9
6.1 4.8 3.3 4.5 6.2 5.2 6.9 6.2 6.6 6.7 6.3 6.0 6.0 6.5 6.4 5.0 5.1 5.6 6.5 5.4 4.6 4.4 4.0 4.8 4.0 3.8 3.7 4.4 4.6 4.4 4.1 4.0 4.3 3.7 3.9 3.2 3.3 3.0 2.9 1.7 1.3 1.5 1.7 1.9 1.2 0.7 0.1 -0.3 -0.7 -0.7 -1.4 -1.1 -1.7 -1.9
4.2 4.0 3.7 3.1 4.5 4.7 5.7 6.0 6.2 6.5 6.5 6.3 6.5 6.5 2.8 2.5 6.5 6.5 6.5 4.5 3.7 3.8 4.2 4.2 3.7 3.6 4.2 4.5 4.7 4.0 3.5 3.7 4.4 4.3 3.2 3.2 4.2 3.0 3.2 2.3 1.8 1.2 1.2 0.8 0.4 -0.1 -0.5 -0.4 -0.8 -0.8 -1.4 -1.4 -1.4 -2.1
6.5 2.3 3.7 4.0 2.3 6.2 6.3 6.5 6.5 6.5 6.5 6.5 6.3 5.0 4.0 4.5 6.5 6.5 6.5 6.2 6.3 5.6 6.0 6.0 5.7 5.6 6.1 5.7 5.1 4.7 4.0 3.8 4.1 4.0 3.9 3.0 4.0 4.6 4.3 2.6 1.7 0.7 0.4 0.7 0.2 -0.4 -0.9 -1.0 -0.9 -1.4 -1.7 -1.9 -2.0 -1.3
6.5 4.6 6.8 6.5 6.8 7.1 4.2 4.3 6.4 5.1 6.5 6.5 6.2 5.2 6.5 6.5 6.5 6.0 5.8 6.3 4.9 4.0 4.5 5.0 5.5 5.9 5.8 5.8 5.2 5.0 4.8 4.7 4.3 4.0 2.9 2.3 2.4 3.2 3.9 3.4 3.0 2.0 0.7 0.6 0.2 -0.2 -0.8 -1.8 -1.8 -1.7 -1.3 -1.6 -1.8 -1.5
4.8 6.6 6.2 4.4 4.8 6.5 2.7 3.9 6.2 6.5 6.2 5.8 5.3 6.5 6.5 6.5 6.5 5.4 5.1 4.7 4.6 4.8 4.4 4.5 5.1 5.3 4.9 4.6 4.1 3.3 4.3 3.5 3.0 3.1 2.4 2.0 1.1 0.9 1.7 1.4 1.1 0.8 1.1 0.7 0.7 0.6 0.3 -0.7 -1.2 -1.5 -1.5 -1.5 -1.9 -2.4
4.8 6.8 5.6 1.4 0.4 4.4 3.4 4.0 4.0 5.3 5.7 4.7 4.1 6.4 4.6 5.1 4.3 4.7 4.3 4.6 4.5 3.5 3.4 3.4 3.1 1.0 2.5 2.3 2.0 2.2 1.2 1.5 2.4 2.0 1.4 0.6 -0.7 0.9 1.3 0.9 0.1 0.3 0.1 0.1 -0.0 0.8 0.8 0.2 -0.9 -1.5 -1.5 -1.2 -1.3 -1.9
3.9 6.7 2.8 -1.4 3.3 6.5 1.7 4.1 2.9 1.9 4.0 4.1 3.9 3.9 4.3 3.9 3.3 2.8 3.0 4.0 2.5 3.5 2.5 -0.3 -0.7 -1.5 1.6 0.5 1.9 1.9 -0.1 -0.2 1.5 2.6 3.0 2.8 0.6 -1.0 -1.6 1.8 2.5 0.9 0.1 1.4 1.3 -0.3 -1.0 -2.1 -2.4 -4.3 -3.2 -3.5 -2.6 -2.7
6.0 5.9 2.6 2.7 1.1 1.1 0.7 -3.5 -3.8 -0.6 -0.9 0.6 -2.6 1.6 3.9 3.0 1.6 1.4 2.3 1.9 2.9 -0.7 -0.8 -1.0 -2.6 -2.4 1.8 1.9 1.1 1.4 1.3 -1.0 -2.0 0.6 1.5 1.9 2.5 2.5 2.4 2.5 2.4 2.5 2.5 2.3 2.3 2.0 1.4 1.0 0.4 -0.2 -0.5 -1.4 -2.4 -2.7
-0.0 2.3 0.7 6.1 0.9 -1.9 -3.3 -1.6 -2.3 -0.9 -2.3 -1.5 0.3 -4.5 -2.3 -1.8 0.8 2.4 1.4 -2.2 -2.6 -1.4 -0.3 -0.7 -0.3 0.6 -1.4 -1.8 -2.8 0.9 3.2 2.4 3.2 2.7 2.8 2.6 2.7 2.7 2.6 3.0 3.2 2.8 2.7 4.4 4.5 3.9 2.4 1.9 1.1 0.7 0.4 -0.2 -1.0 -2.2
-3.2 -4.4 -4.3 -2.6 -0.5 0.6 -2.9 -0.1 0.5 -0.0 -3.5 -2.6 -0.7 -0.6 0.5 1.2 2.5 2.1 0.0 -0.5 1.2 1.6 1.5 -0.2 -0.4 -2.0 -1.8 -0.6 -0.6 -0.9 -0.0 2.4 2.3 2.4 2.7 3.0 3.0 3.1 3.0 3.0 2.8 2.8 3.0 3.5 4.3 4.2 3.9 2.7 2.4 1.6 0.9 0.2 -0.2 -0.5
Wind_Speed
25 25 24 25 25 23 20 20 22 19 21 16 14 10 11 16 12 4 1 6 3 3 2 2 1 4 3 2 5 5 4 2 3 2 3 3 3 5 3 4 6 6 6 4 3 1 8 5 3 6 3 3 5 5
21 22 23 24 22 21 20 19 19 22 21 18 18 14 11 9 8 7 3 3 4 5 3 1 2 2 2 1 4 2 3 3 5 4 1 3 1 1 3 2 2 3 6 5 8 5 1 1 0 2 3 4 4 4
20 20 21 20 19 18 19 19 18 20 18 18 19 19 14 10 4 6 3 1 4 4 3 3 3 5 4 2 1 4 2 5 3 2 3 2 2 3 3 4 2 3 4 3 2 3 4 3 2 3 3 4 5 4
20 19 18 17 17 16 17 17 18 17 17 19 17 18 19 18 13 10 3 2 3 4 4 4 2 3 6 4 2 2 5 5 5 3 3 3 3 3 3 3 4 4 3 4 2 1 2 5 6 6 4 4 4 4
17 18 18 17 16 15 16 17 16 15 15 15 15 15 16 20 23 21 9 5 4 4 4 1 2 4 6 6 11 8 7 5 3 3 3 2 1 3 1 2 3 5 6 5 5 6 4 3 10 7 7 5 5 5
17 16 16 15 16 16 15 15 15 14 15 13 12 11 9 7 6 4 4 4 14 3 4 2 3 5 6 6 10 9 4 4 3 3 2 1 2 3 2 3 5 4 2 3 3 4 3 4 7 6 6 6 4 5
13 14 14 14 14 15 15 15 15 16 16 18 20 22 20 17 9 4 3 3 10 2 3 4 2 4 4 4 4 4 4 2 3 2 1 2 0 3 2 3 5 6 5 4 7 8 4 2 5 6 7 6 7 6
15 14 13 14 14 14 15 15 15 14 14 14 13 13 14 17 10 4 6 13 6 4 4 3 2 2 5 3 2 3 3 3 5 2 1 2 2 2 4 8 1 3 6 6 5 4 3 8 8 7 8 9 9 8
15 15 14 14 13 14 14 13 11 11 11 9 8 6 6 5 3 2 13 6 12 4 3 2 3 3 2 2 1 3 3 3 2 2 1 3 1 5 6 4 6 7 6 8 6 6 7 7 10 10 10 9 9 8
15 15 15 14 13 12 11 10 9 7 6 5 7 4 3 2 7 6 6 4 5 4 3 3 1 2 3 2 2 2 3 1 1 3 2 2 4 10 7 4 5 6 7 11 6 4 4 5 9 8 6 6 7 8
16 15 16 15 13 11 9 8 6 4 7 3 3 1 3 5 3 3 3 4 3 3 2 1 2 3 1 3 2 1 2 1 1 3 2 2 3 3 4 4 3 6 9 4 4 3 6 8 10 8 7 7 8 8
14 14 15 14 12 12 12 7 4 5 1 3 4 3 2 4 4 5 2 1 2 1 1 3 2 3 0 3 3 1 2 2 3 3 0 3 4 1 1 3 3 5 8 7 3 7 6 9 9 8 7 8 6 7
15 16 15 14 12 12 13 16 16 12 5 3 4 4 3 3 7 3 2 1 1 2 3 2 3 1 1 2 3 2 2 2 3 2 3 4 2 2 3 3 4 5 8 7 6 5 7 7 7 6 7 6 7 7
18 17 16 14 12 11 11 11 9 5 4 3 3 5 3 2 0 2 3 3 3 2 4 3 2 2 1 2 2 3 2 2 0 1 4 3 3 5 5 5 4 3 6 8 7 6 7 8 6 5 6 7 7 8
22 19 16 13 12 11 10 10 10 6 3 3 3 1 1 0 1 1 2 1 0 3 3 2 2 2 1 3 1 2 1 2 4 4 3 3 1 6 7 8 6 5 5 6 5 6 7 7 7 5 4 5 6 7
24 14 5 15 13 10 7 8 6 3 3 3 2 2 1 2 3 3 1 1 1 3 2 2 2 1 2 2 2 4 2 3 3 3 3 1 4 5 7 7 8 6 5 6 6 7 8 7 8 8 7 6 6 7
14 1 18 18 16 16 13 4 3 4 3 2 2 2 1 1 2 2 1 0 1 2 1 1 2 4 1 1 2 4 4 3 2 3 2 3 5 6 8 8 8 8 7 7 6 6 7 8 9 9 9 7 7 8
3 12 23 15 9 7 3 4 3 3 2 1 0 1 1 1 1 1 1 1 2 2 1 1 2 3 3 3 2 1 2 4 3 3 3 1 4 6 7 9 9 9 9 8 8 7 8 9 9 6 7 8 6 7
10 17 19 12 7 4 3 2 2 2 1 1 2 2 1 2 2 1 1 1 1 1 3 1 3 3 3 2 2 2 1 4 2 3 3 2 5 6 7 7 8 8 10 9 9 6 6 8 5 5 5 6 5 5
22 21 15 12 6 3 4 2 1 0 1 2 1 1 2 2 1 2 2 2 2 2 2 4 4 3 2 2 1 2 2 0 2 5 2 1 1 4 7 8 6 8 8 7 7 7 6 5 5 5 6 6 6 7
11 5 10 6 3 3 3 2 1 2 2 2 1 2 3 0 2 2 2 3 2 3 3 3 3 4 4 2 3 3 3 3 3 3 2 2 3 4 4 4 6 7 7 7 7 7 8 7 7 6 6 6 5 5
3 7 3 4 3 3 2 2 2 1 1 2 1 2 2 1 2 3 1 2 3 4 4 4 4 5 5 4 5 5 6 6 5 3 1 4 3 3 5 6 7 7 7 7 9 8 8 7 6 6 6 4 5 5
7 4 3 3 4 3 3 2 2 2 1 2 1 2 2 2 3 3 1 2 3 4 4 4 5 6 7 8 7 6 6 6 4 5 5 5 3 4 4 6 7 8 8 8 8 7 7 8 8 7 6 6 5 3
5 2 3 2 2 3 2 2 2 2 1 1 1 2 2 3 1 2 3 3 3 3 3 6 3 3 3 5 6 8 7 5 5 4 4 4 4 5 7 6 7 7 7 5 8 8 7 8 9 7 7 6 7 7
5 3 4 1 2 2 1 1 2 3 3 4 2 3 3 1 1 1 2 3 2 3 4 3 2 3 4 7 6 6 5 5 5 7 4 6 5 2 3 5 6 7 6 7 8 9 8 8 9 9 9 10 11 11
2 3 4 6 2 4 4 3 3 5 3 1 3 2 2 2 2 4 1 1 2 1 1 2 3 4 3 4 5 3 3 3 4 4 4 5 6 7 6 6 6 5 8 8 8 11 11 10 11 13 12 13 12 11
3 4 3 3 2 1 2 2 0 2 3 4 2 1 2 1 4 2 1 2 2 2 2 3 3 4 5 5 2 2 2 2 3 2 2 3 4 5 6 6 9 5 9 12 11 11 14 14 12 14 12 10 12 13
4 3 5 3 2 2 3 0 2 4 4 3 3 3 5 6 4 2 3 2 2 4 3 4 4 4 5 6 3 1 2 1 3 3 3 2 2 2 3 3 2 6 6 9 11 10 10 11 12 13 14 14 12 12
3 2 4 1 2 2 5 6 4 3 2 2 4 2 3 2 2 1 3 4 5 3 4 4 4 2 3 3 3 1 1 0 3 3 3 3 3 3 2 1 1 2 2 4 9 10 14 12 13 13 15 13 11 9
3 4 3 2 5 5 4 4 3 3 2 3 3 1 2 3 3 2 2 5 3 5 4 3 2 0 4 2 4 4 2 3 3 2 4 5 3 3 1 2 3 3 3 5 6 5 5 3 4 3 5 5 7 8
2 3 2 3 4 4 4 2 2 1 1 2 1 3 4 3 4 3 4 4 5 3 2 3 4 4 4 4 3 4 4 2 1 2 3 4 5 5 5 5 4 3 4 6 6 8 9 9 10 10 11 12 13 12
2 5 4 3 4 4 3 2 1 2 2 1 4 1 3 2 3 3 4 3 1 2 6 4 4 5 4 4 3 4 8 4 6 5 7 5 6 6 6 6 5 5 6 7 8 9 12 14 11 12 13 16 14 15
2 2 2 2 3 3 3 2 2 4 2 3 4 4 4 4 6 4 3 4 4 4 5 5 5 4 5 5 4 3 4 5 7 6 7 8 9 9 8 6 6 7 9 9 9 10 13 16 14 15 15 14 15 16
Wind_Direction
96 99 99 97 94 89 83 83 83 77 74 70 72 75 106 126 127 94 114 29 102 97 351 347 19 126 94 119 141 178 79 330 53 108 133 208 158 218 168 169 171 163 155 193 144 180 280 145 87 177 178 82 158 167
95 90 88 84 82 83 80 73 74 73 65 55 55 73 104 110 122 105 94 13 41 74 149 330 60 57 77 59 121 28 157 159 174 92 68 104 165 52 150 230 96 206 188 180 186 212 250 306 221 87 137 141 169 145
96 89 85 86 84 81 79 76 67 70 70 62 56 62 72 92 95 101 110 111 61 90 13 38 13 344 32 349 212 122 270 156 119 122 150 148 139 131 161 232 202 231 168 218 109 207 207 182 90 149 136 125 130 138
100 101 99 93 86 80 80 78 73 65 67 67 59 62 69 75 81 93 87 7 80 101 114 276 327 33 335 14 85 85 127 64 88 51 94 126 147 185 210 185 174 204 129 187 250 278 29 262 223 170 125 118 137 173
107 108 104 98 93 90 82 79 77 75 72 73 77 73 73 78 80 85 85 47 66 127 156 223 318 6 15 37 58 55 79 88 82 66 79 200 137 125 316 54 251 186 186 173 226 194 161 228 178 155 143 171 182 162
111 108 103 97 92 88 82 76 77 78 82 75 81 82 68 54 77 65 49 357 15 83 94 83 300 14 11 43 62 49 51 70 82 113 177 278 262 104 131 207 259 214 203 144 222 122 88 84 119 128 142 157 168 188
103 101 98 93 90 83 78 75 78 80 77 76 74 78 78 81 73 75 127 261 329 24 82 92 24 331 0 23 32 24 30 75 95 117 85 147 290 96 130 206 247 211 188 118 127 113 49 200 176 150 127 132 140 90
109 102 93 92 88 83 75 71 70 73 77 76 80 81 83 93 101 37 356 8 70 87 69 103 91 86 18 27 35 357 37 30 14 151 19 106 15 88 254 235 103 99 102 119 122 52 147 121 114 116 120 127 135 128
115 110 105 99 86 76 67 65 67 71 68 71 68 63 56 38 48 300 335 7 47 95 112 91 131 145 29 59 39 23 34 43 313 70 282 98 243 226 236 192 183 181 182 164 107 94 107 125 140 145 148 159 147 141
128 120 115 107 96 83 70 62 67 65 54 54 42 42 28 322 326 347 11 27 17 346 29 86 121 119 93 57 49 67 26 116 57 253 90 220 261 249 257 209 209 184 146 132 106 137 141 152 156 156 168 154 142 142
136 129 126 116 104 88 70 63 71 48 42 36 49 72 246 321 57 32 41 62 323 34 17 184 103 140 258 119 151 186 174 128 29 280 159 268 264 247 11 340 301 169 155 124 110 135 154 163 155 150 143 130 135 134
141 132 126 114 98 77 64 71 75 69 128 152 133 110 28 38 42 74 360 4 41 159 258 120 148 140 189 110 101 225 113 180 229 163 116 266 256 138 15 358 28 97 119 107 103 131 128 129 135 135 129 128 130 123
139 134 124 109 93 76 65 68 81 103 103 42 49 54 49 329 47 105 145 322 351 183 182 148 117 106 70 114 74 158 169 214 146 197 251 239 253 150 115 89 67 85 102 106 100 86 104 105 96 110 114 111 124 130
138 132 123 111 97 85 71 63 59 60 63 63 66 28 79 352 287 176 169 152 239 164 139 140 104 105 41 139 145 160 224 110 245 236 246 261 256 158 133 130 115 114 115 117 119 118 118 115 104 85 118 133 140 141
134 126 116 107 100 86 74 59 46 48 67 73 67 100 160 253 241 282 257 332 331 134 115 93 69 89 100 101 204 83 81 236 213 235 239 249 193 146 146 155 139 136 128 128 130 120 118 117 125 112 119 139 129 128
124 104 107 122 105 86 74 55 33 53 46 64 81 74 7 47 320 359 360 318 122 142 82 60 119 89 213 141 151 188 169 233 245 221 248 155 152 154 152 152 147 148 139 131 131 135 137 136 146 148 144 136 134 149
90 67 135 117 99 72 49 66 44 42 85 44 12 56 121 155 192 241 181 282 79 75 104 109 166 204 112 148 215 186 212 238 278 293 290 203 197 164 153 148 151 152 141 141 142 146 145 144 135 148 159 158 167 160
81 145 133 120 99 52 37 32 67 63 52 307 276 295 181 200 152 352 274 314 83 109 148 236 333 195 198 205 216 350 323 294 304 317 323 148 149 157 164 158 155 159 161 158 157 153 150 154 162 171 157 157 155 147
138 148 130 111 97 97 84 32 53 86 241 270 268 201 214 230 225 220 203 230 157 132 117 209 228 228 212 164 156 174 26 19 332 343 342 360 150 156 158 155 155 162 173 165 162 167 170 172 166 165 152 162 169 160
112 103 99 74 62 77 70 56 346 166 251 249 283 259 215 232 226 174 166 189 143 148 180 211 206 207 167 152 182 183 198 139 34 353 340 67 217 171 165 163 176 174 165 158 162 169 175 174 172 182 176 173 172 177
73 67 57 62 49 63 111 126 167 222 262 248 260 176 249 205 237 221 229 167 141 199 216 214 233 244 215 224 190 218 249 188 235 211 230 276 188 190 170 170 167 167 174 175 175 185 189 193 190 194 166 180 181 171
86 67 72 31 70 43 70 176 167 255 210 252 263 198 235 266 249 227 188 154 219 217 200 204 223 239 252 247 229 219 232 249 218 215 213 135 126 189 193 183 176 188 185 187 195 191 194 192 171 169 172 174 171 163
88 55 58 72 66 66 271 139 183 202 159 239 213 215 230 210 218 140 194 219 238 232 216 212 235 231 235 244 243 237 227 231 227 219 224 216 184 193 183 191 188 188 195 197 196 193 189 176 177 175 167 162 164 159
59 68 103 147 119 205 237 200 209 245 209 224 195 240 227 220 103 214 230 227 245 247 218 228 219 267 283 250 241 243 236 210 228 229 220 183 186 199 190 196 200 205 202 181 185 185 179 182 171 174 174 175 181 187
90 303 104 250 320 98 143 275 237 207 217 210 182 295 267 86 133 280 237 261 314 309 287 274 250 235 253 269 257 246 235 197 221 233 223 194 215 124 176 191 199 203 176 170 186 184 184 179 179 181 183 186 190 193
145 259 137 188 238 166 202 180 212 213 158 169 242 235 52 91 135 254 151 318 288 272 317 320 302 293 300 274 264 260 271 211 199 219 243 190 204 211 213 191 203 213 194 198 183 186 184 187 192 187 190 194 192 187
202 255 207 201 232 190 349 323 244 116 158 199 230 141 104 169 243 247 170 252 242 242 271 299 284 291 296 295 282 12 353 320 216 224 276 260 234 230 217 207 217 223 178 194 192 191 191 190 193 196 199 196 196 197
202 185 175 215 180 183 157 148 165 205 222 204 124 171 186 198 222 218 209 261 286 309 278 273 264 258 277 298 307 247 246 314 301 288 285 284 250 231 237 243 203 177 177 189 196 196 196 191 195 196 195 199 200 196
199 217 129 170 335 209 199 188 214 228 205 139 145 220 242 243 188 261 291 289 307 300 298 308 307 311 299 291 276 272 248 19 13 340 296 281 334 304 345 330 281 225 212 193 206 206 200 194 194 194 199 200 199 188
234 174 126 121 154 211 231 191 215 239 223 182 167 346 332 299 257 227 252 278 264 257 249 224 254 310 273 284 296 307 235 204 171 217 274 280 247 263 290 347 322 284 230 218 220 196 141 137 120 113 152 158 168 174
186 154 113 161 216 234 224 278 318 146 3 212 340 179 243 263 299 247 223 229 240 244 215 260 271 235 241 262 246 284 298 304 175 249 256 257 271 279 285 276 258 255 253 235 215 207 201 197 195 195 190 190 189 187
106 172 152 186 262 275 9 122 234 188 281 15 268 303 325 49 252 268 245 162 123 246 241 209 221 252 219 223 232 243 276 286 293 283 284 273 280 276 275 277 271 257 251 245 236 220 208 206 202 200 205 201 192 195
59 56 56 59 1 330 307 105 7 324 347 258 252 215 224 184 220 247 279 215 198 203 222 217 225 215 218 220 229 245 252 272 272 280 287 284 282 285 286 278 271 265 261 253 241 229 216 211 212 210 207 202 202 199